GFSMA_2pvu_pres_210.txt.gz
Presure
180 183 182 177 174 156 171 180 176 175 189 179 177 192 198 192 184 181 178 175 174 169 177 184 178 178 176 177 172 172 167 166 170 172 163 172 169 173 169 172 182 184 186
167 165 174 181 177 177 185 169 183 164 191 169 172 174 178 193 195 191 185 179 179 173 173 184 182 184 184 178 172 172 169 168 164 163 178 168 167 169 184 178 183 182 175
186 181 181 181 109 183 175 178 174 167 174 176 175 96 169 169 198 195 196 182 181 180 174 175 176 180 182 185 177 174 171 173 166 168 175 171 177 174 169 173 154 174 181
172 173 172 171 182 177 174 167 135 182 145 159 178 169 182 177 188 185 185 200 183 174 178 175 175 173 177 174 179 176 184 175 175 175 174 157 174 161 177 177 174 175 173
163 171 164 170 175 177 181 169 172 182 177 168 175 182 181 170 184 188 189 184 191 187 181 179 177 177 175 177 179 186 180 182 182 182 169 176 174 173 169 164 173 173 177
154 148 164 165 180 177 178 185 177 176 161 168 170 181 179 185 174 168 196 189 185 184 183 168 178 179 174 182 184 186 185 172 173 174 174 177 178 180 181 175 168 173 178
194 205 171 143 157 164 158 183 167 176 175 171 174 170 183 178 171 191 181 193 198 186 188 184 180 178 177 177 179 182 181 183 179 180 167 169 177 178 172 163 175 178 178
163 205 197 171 159 160 167 178 159 173 181 172 179 183 179 152 180 170 189 179 169 181 184 183 186 177 177 177 177 175 173 180 180 182 182 173 181 178 176 171 177 168 178
153 183 190 175 175 180 173 175 165 166 169 174 181 177 182 180 179 178 185 172 184 183 181 191 193 182 185 185 187 185 179 183 168 183 176 176 170 167 170 173 178 173 176
138 185 165 187 183 173 171 164 174 160 147 150 159 181 172 164 184 152 184 154 180 192 186 179 184 185 191 194 195 194 162 169 184 182 166 173 176 164 171 181 177 179 180
134 195 131 140 176 185 169 184 189 184 167 180 139 179 179 171 181 171 182 182 180 184 183 185 194 179 155 195 195 194 185 188 151 185 186 175 172 164 178 190 187 177 180
170 162 157 157 153 163 167 168 132 184 188 188 174 171 187 166 175 182 176 175 171 171 154 182 186 170 155 184 183 188 188 178 167 181 172 171 172 176 183 187 175 171 180
156 143 167 155 171 134 146 161 163 140 146 176 163 186 179 171 172 159 153 163 166 177 150 182 182 174 165 179 169 184 188 189 185 186 178 177 189 177 181 178 180 163 184
162 162 144 155 173 165 151 147 194 171 175 128 139 134 180 182 167 172 182 176 186 183 191 184 161 165 176 172 168 180 175 172 185 166 168 177 177 176 156 153 173 174 195
186 162 179 157 175 151 174 160 143 185 162 161 148 162 191 185 168 166 172 163 166 172 179 191 182 166 182 189 193 172 178 184 171 169 179 158 166 175 202 194 210 204 198
197 152 183 166 158 198 149 133 166 157 158 132 189 181 156 188 185 184 184 178 173 171 186 169 201 201 174 178 184 195 202 199 190 191 193 199 192 207 183 177 202 199 197
179 168 172 164 179 159 162 157 169 168 176 129 176 188 172 204 151 177 193 207 195 180 190 200 185 198 174 189 183 193 200 196 201 204 199 203 203 203 197 205 208 195 207
205 185 154 171 172 175 161 157 166 174 162 172 169 178 194 179 190 184 196 200 193 183 185 194 200 193 183 193 199 195 194 195 203 209 209 196 202 198 204 207 189 203 210
191 225 180 193 171 176 169 168 177 178 155 172 154 170 182 174 185 177 199 201 179 196 197 220 190 184 184 197 203 186 203 213 207 202 203 204 203 201 203 206 206 186 216
175 205 180 184 190 180 168 175 174 184 181 190 172 180 190 200 186 178 192 193 184 196 191 204 204 184 184 197 194 197 189 208 204 200 200 200 204 209 210 189 195 206 218
230 190 178 184 192 178 168 176 178 181 171 164 121 196 187 191 164 190 202 206 198 194 178 198 190 200 191 194 192 203 204 201 209 221 207 205 206 184 207 208 212 207 225
225 172 167 210 201 165 174 188 193 181 184 187 195 188 178 180 189 183 191 198 202 203 186 185 182 197 189 195 213 196 230 213 181 210 187 209 196 210 206 192 205 227 184
226 196 226 207 173 203 205 197 191 193 190 194 175 202 169 180 194 191 189 192 231 216 209 195 205 203 202 210 223 244 218 191 197 187 199 206 185 193 202 207 197 212 264
234 237 209 219 205 199 212 183 185 187 185 178 186 186 198 203 201 208 202 206 196 190 192 207 189 201 194 220 235 209 187 208 210 163 188 180 175 232 204 228 245 257 232
229 237 210 225 237 179 193 194 206 202 218 186 217 189 193 197 199 199 200 191 204 201 212 225 218 238 205 235 221 234 222 187 196 202 210 206 251 220 277 282 272 261 268
240 228 236 218 222 233 209 188 214 210 193 209 205 204 201 200 131 207 208 214 215 212 213 217 235 228 235 226 223 207 221 195 223 231 234 237 247 235 276 245 273 267 239

GFSMA_2pvu_pres_216.txt.gz
Presure
177 164 152 179 176 180 185 181 187 183 180 182 183 176 173 177 167 175 177 190 187 180 179 182 188 186 183 180 178 170 175 178 173 174 181 180 178 178 175 175 173 167 168
140 172 171 173 169 185 177 179 180 173 166 178 177 178 169 174 181 142 175 189 166 169 145 172 172 179 192 194 186 177 174 175 174 172 178 165 175 179 173 175 180 180 177
150 164 172 174 162 175 185 178 185 184 185 189 182 183 175 172 180 180 168 164 163 158 166 178 179 167 164 192 195 191 187 178 176 176 171 171 171 170 171 173 173 172 174
169 145 159 156 146 170 177 150 176 172 169 170 179 164 180 185 179 168 175 166 175 171 174 175 177 180 160 177 184 186 183 203 184 177 175 175 176 174 172 171 177 173 174
162 177 129 167 139 171 171 170 145 157 166 188 179 167 175 183 182 181 169 164 172 169 163 180 166 183 174 181 183 186 192 183 188 191 184 174 172 174 176 165 171 170 173
193 119 187 159 165 154 136 142 155 168 170 182 178 162 188 179 173 174 171 173 173 168 185 181 174 183 164 181 172 188 175 191 187 183 186 182 178 175 172 177 172 169 165
181 192 157 192 179 181 151 158 166 158 167 169 141 178 184 189 146 157 165 164 176 168 173 170 166 174 190 183 183 176 156 189 183 184 188 185 178 176 177 175 175 181 181
167 125 149 160 180 178 135 168 157 172 140 131 137 189 171 174 192 200 190 179 159 169 171 177 171 171 176 172 183 180 181 188 171 170 183 173 162 191 185 180 180 182 182
195 191 149 161 153 132 188 190 154 128 163 172 170 153 166 166 164 178 198 190 181 184 183 165 183 154 176 166 176 182 184 174 193 180 185 180 176 181 166 176 187 182 178
181 178 211 209 186 184 163 165 186 189 175 171 147 153 164 180 133 163 142 171 168 164 175 177 172 171 186 181 184 181 164 155 182 180 154 192 178 178 175 177 157 154 166
207 163 230 170 173 190 174 142 181 172 168 158 143 165 153 173 152 169 154 173 167 174 167 181 171 169 177 170 192 180 190 170 180 174 174 162 161 165 170 171 166 161 162
168 210 191 211 201 198 189 196 158 162 133 162 159 153 133 152 132 170 147 160 170 152 159 157 176 186 170 195 202 180 196 186 178 176 187 170 176 178 165 168 169 173 174
172 157 196 195 170 197 205 175 168 170 155 157 176 153 161 154 174 169 166 154 155 167 167 182 162 171 147 155 168 184 187 175 205 191 164 182 179 181 163 182 195 176 181
226 223 194 194 229 197 155 217 179 164 130 195 153 172 157 148 137 158 169 163 158 174 189 170 142 170 143 171 194 190 168 152 141 194 213 205 194 190 197 180 146 187 214
183 232 230 243 200 153 199 186 193 192 139 183 128 139 152 160 136 155 166 161 165 178 172 174 168 175 163 167 185 173 144 176 181 175 160 155 193 188 177 201 199 160 210
220 209 231 214 220 213 204 214 193 160 178 134 145 182 173 165 179 176 161 158 184 149 173 188 166 168 161 175 170 175 172 163 182 205 196 177 193 203 172 195 172 214 172
252 248 210 251 236 233 218 207 207 211 198 195 187 163 163 149 166 160 164 178 173 163 152 153 180 161 174 178 146 159 197 185 182 174 191 178 189 194 184 179 186 204 181
288 320 292 277 277 274 274 216 216 217 215 203 195 190 175 182 188 183 186 158 165 168 158 139 162 162 173 140 140 178 185 181 167 169 146 158 190 162 205 188 174 205 188
398 397 394 399 387 384 406 367 218 224 202 219 197 200 176 181 192 174 173 186 161 189 170 179 167 174 154 174 160 169 187 163 205 193 165 177 192 179 183 196 205 192 206
372 365 360 357 363 344 356 362 354 234 214 216 216 205 176 142 208 195 172 166 186 174 164 150 153 164 152 151 169 193 187 194 176 167 191 195 191 200 188 191 196 198 195
354 346 341 330 325 319 333 342 328 336 286 222 230 224 196 194 203 198 193 184 174 176 189 194 178 182 182 168 165 183 190 196 187 190 201 190 179 194 179 190 220 226 207
336 333 323 315 304 311 312 325 319 309 322 311 212 218 184 214 159 209 156 152 189 156 179 169 168 183 181 184 180 177 168 199 177 194 179 195 193 179 209 190 198 190 207
326 310 317 304 299 307 308 312 297 288 295 294 297 297 211 227 170 192 177 157 194 197 190 164 187 171 177 194 194 188 179 193 200 183 209 188 198 198 198 209 205 208 203
318 313 315 303 300 302 318 310 295 270 261 285 278 271 283 203 187 204 200 209 191 203 195 184 178 193 168 197 178 178 195 188 161 185 190 186 182 209 193 203 203 214 184
322 316 322 302 304 298 313 300 290 267 263 273 276 260 249 235 213 201 200 207 173 169 185 191 176 188 179 195 198 198 192 194 178 201 195 203 196 186 209 194 220 209 207
331 321 316 326 305 289 293 294 292 268 264 265 261 259 252 247 216 205 203 200 201 202 164 168 174 177 172 189 194 201 180 186 199 203 202 198 196 190 188 207 205 186 227

GFSMA_2pvu_pres_219.txt.gz
Presure
145 176 164 172 184 162 158 172 172 180 186 184 184 182 173 176 150 175 179 171 168 178 169 188 182 187 182 181 189 188 180 177 175 174 174 170 177 177 171 163 171 175 173
167 170 133 128 165 153 174 172 170 182 178 184 179 175 178 179 174 180 182 178 177 174 176 183 187 174 170 171 168 175 177 192 206 193 184 178 173 174 175 171 170 172 172
110 154 164 175 161 151 125 165 174 165 186 179 183 185 171 157 186 173 166 173 180 187 179 173 176 164 161 157 168 176 164 157 176 165 186 195 198 187 181 179 177 171 172
136 110 189 152 145 165 163 146 155 169 152 180 179 179 177 178 179 160 177 176 172 182 178 172 169 171 174 174 178 177 155 174 163 177 188 189 181 188 202 183 174 174 169
183 134 135 185 152 140 159 173 165 163 168 124 169 177 167 158 156 180 182 178 177 177 160 159 155 163 170 172 170 171 183 185 171 171 178 175 185 186 182 179 180 180 173
154 174 185 131 172 167 133 171 176 159 151 165 141 170 141 155 166 157 153 160 173 177 183 173 173 169 170 161 175 176 171 178 177 178 168 164 183 173 178 183 181 178 178
181 199 188 176 154 152 131 147 188 116 178 149 164 125 135 170 166 159 141 182 162 193 175 166 163 159 174 182 161 169 167 169 179 175 177 156 170 180 169 165 171 154 179
206 182 177 179 183 189 129 212 154 192 188 159 153 176 165 147 162 149 138 154 201 178 182 192 187 144 163 146 179 181 175 187 204 172 184 176 170 187 173 163 175 173 169
172 206 175 178 179 194 180 177 184 194 146 178 182 155 180 135 144 158 124 179 160 140 187 152 170 184 176 178 179 168 153 169 190 183 190 177 178 175 174 175 172 181 166
213 190 177 185 180 193 180 177 188 178 202 186 142 186 177 162 168 152 137 163 174 135 162 138 149 170 169 172 179 166 185 180 168 179 198 218 165 184 165 178 176 172 170
169 244 175 199 194 182 200 191 199 180 172 175 142 152 143 192 203 165 156 136 159 145 146 171 161 144 155 161 165 169 178 162 183 142 179 194 204 212 176 178 175 166 153
199 192 195 195 212 200 201 170 188 168 192 176 181 180 185 163 181 169 148 162 159 153 143 158 169 165 174 152 163 171 174 176 184 170 163 182 198 206 178 193 203 177 172
163 138 181 198 187 188 203 178 231 228 200 174 191 190 177 179 173 137 150 171 158 161 133 138 170 153 153 142 172 170 172 175 137 168 151 167 201 166 177 202 170 196 205
167 190 228 155 211 191 188 220 238 198 173 181 209 182 194 182 180 169 169 181 170 155 167 178 170 151 171 165 164 176 162 174 179 178 149 152 188 166 206 169 194 141 215
234 227 217 225 227 171 229 162 202 253 214 214 235 175 202 194 133 192 185 185 173 181 159 132 164 149 155 176 169 172 193 172 161 175 177 187 185 146 163 189 169 201 204
208 222 204 227 242 238 227 224 218 217 204 229 205 168 181 197 144 205 150 152 162 190 168 169 154 159 153 174 176 173 176 149 159 161 171 172 188 161 154 187 175 197 191
242 244 241 211 244 233 234 235 237 246 245 244 203 210 206 140 178 201 213 191 179 160 147 175 160 145 174 160 162 176 170 182 171 168 175 174 153 168 160 196 170 179 191
275 277 267 255 265 248 271 261 258 261 257 236 204 259 225 204 216 203 203 198 189 170 159 184 138 179 159 185 172 176 149 182 174 179 176 141 168 156 184 179 183 186 173
349 368 428 402 355 339 370 389 361 349 305 291 258 274 263 212 213 135 165 197 198 215 179 185 176 153 171 184 179 192 169 169 184 183 162 170 146 190 192 168 194 162 202
406 374 394 389 375 387 387 382 390 387 393 394 349 294 278 248 231 233 216 218 206 186 207 161 187 173 159 174 174 170 181 163 166 150 179 171 177 172 200 189 176 167 186
367 358 368 363 367 364 360 360 360 359 369 354 325 324 365 343 289 211 214 218 211 214 184 176 190 162 163 190 185 194 175 172 179 188 179 194 174 196 198 169 176 186 206
353 366 361 355 349 349 344 339 330 328 330 342 320 318 303 322 335 235 215 226 218 197 210 214 185 201 201 187 181 186 189 190 178 182 182 182 184 194 177 194 189 203 211
354 354 361 354 343 340 333 327 327 319 319 299 319 304 299 312 309 314 235 218 214 196 196 187 199 214 171 182 175 185 183 175 174 178 173 167 165 189 192 179 199 173 183
354 356 369 369 346 335 324 322 306 308 303 291 292 306 290 292 289 231 286 231 180 213 194 216 155 155 197 210 190 186 187 184 190 175 182 162 180 185 193 192 176 185 200
361 358 355 384 361 337 324 318 311 292 302 281 274 281 287 278 266 264 269 262 219 225 202 219 161 162 206 183 202 189 184 203 203 198 189 187 193 184 176 168 177 184 181
381 365 354 367 386 344 325 316 304 301 296 284 281 278 261 276 258 262 264 265 262 216 216 219 145 197 190 199 182 170 207 168 161 182 162 203 199 184 199 171 189 208 203

GFSMA_2pvu_pres_225.txt.gz
Presure
176 161 175 153 165 141 158 150 169 165 176 165 181 171 154 168 165 169 174 189 179 179 179 173 171 178 174 172 172 169 170 168 179 176 195 189 184 181 185 184 178 181 164
173 181 163 180 148 173 157 146 153 154 148 153 177 180 178 142 155 150 156 178 183 184 180 179 175 174 179 176 175 170 172 172 175 185 183 174 169 161 160 170 173 179 176
187 165 171 171 163 182 127 168 167 168 139 162 154 173 153 155 178 157 154 183 168 180 181 175 177 179 174 175 177 177 170 176 176 162 173 172 169 162 171 174 178 176 174
165 175 179 162 164 166 164 176 145 136 130 129 131 143 160 136 152 155 169 165 178 167 165 182 181 173 174 171 169 173 174 169 167 178 171 125 168 174 171 172 174 189 177
188 222 174 172 178 201 192 165 179 170 185 183 151 185 184 148 154 149 141 143 153 172 161 161 163 179 176 178 172 167 167 170 175 180 175 168 163 162 169 176 175 176 180
190 167 161 149 177 159 153 162 175 152 188 208 192 183 183 164 165 167 184 159 173 168 147 173 180 173 180 166 156 175 173 162 166 172 169 169 167 165 176 167 171 167 183
181 162 184 201 143 178 166 143 208 203 156 160 149 167 215 181 192 190 157 180 145 170 178 169 162 150 152 140 188 189 161 145 172 164 168 174 176 172 167 179 190 170 175
168 182 182 192 192 178 150 162 167 146 161 189 148 207 186 172 178 179 179 193 146 177 155 149 155 180 162 158 140 162 127 198 132 177 189 158 157 164 166 157 174 181 157
192 185 173 183 172 183 172 166 189 158 164 188 193 191 186 200 211 169 184 191 180 187 143 175 142 151 181 174 138 185 168 152 162 157 177 163 178 172 160 168 179 182 164
181 180 191 158 184 200 190 191 185 170 188 205 188 195 213 195 165 172 179 181 140 184 183 199 174 165 168 167 176 162 155 160 136 146 135 149 185 168 168 175 184 185 175
181 191 162 198 215 218 182 189 235 186 210 174 192 170 189 190 220 217 180 196 198 194 194 188 148 186 177 163 148 167 155 146 153 178 174 181 178 175 152 175 178 180 143
175 183 192 198 243 254 203 225 209 95 182 208 191 214 157 213 151 199 180 181 194 198 195 187 181 171 189 183 148 156 162 169 160 173 174 181 161 172 165 146 146 174 176
170 200 183 250 261 259 215 251 135 240 205 211 234 157 223 216 234 185 206 232 151 182 187 202 200 168 188 182 182 180 174 152 180 167 173 124 180 171 171 167 145 150 151
203 207 206 248 224 222 208 215 206 205 195 254 241 246 188 229 244 247 238 253 230 159 197 202 200 199 191 158 164 186 186 167 153 166 179 179 173 179 167 171 161 174 162
211 199 252 229 228 250 254 245 249 237 206 203 206 235 268 245 238 205 240 226 236 175 223 204 186 198 201 193 199 167 149 180 179 182 188 166 146 171 163 185 184 182 154
203 237 254 258 261 265 260 260 264 272 274 225 261 251 234 235 217 233 245 240 243 216 185 240 215 203 200 182 192 190 197 193 199 177 170 178 180 174 179 141 174 177 182
241 283 275 267 274 278 271 270 266 271 281 280 300 296 284 274 232 239 239 231 269 259 226 238 169 218 183 206 194 195 186 197 203 184 192 199 174 192 188 135 167 152 190
290 282 278 282 290 289 293 292 300 307 221 294 313 323 317 317 313 302 236 236 227 260 214 213 238 232 182 217 184 116 202 197 192 198 181 193 175 168 186 144 153 177 153
283 297 302 315 317 341 406 410 368 355 345 331 325 297 335 338 338 354 349 356 275 244 248 281 241 238 193 224 200 159 161 203 201 186 194 200 190 184 176 191 180 175 185
307 316 336 385 377 380 383 381 378 343 322 309 308 306 306 313 323 349 343 388 379 378 333 260 244 244 248 231 222 219 192 169 195 187 180 200 178 178 191 203 189 167 180
332 388 375 361 361 361 394 401 394 417 337 326 311 316 321 326 341 358 375 402 398 401 414 435 273 248 256 234 241 224 174 171 210 189 159 160 196 204 192 187 196 180 183
377 366 352 361 395 384 374 375 378 393 358 339 330 328 326 335 310 376 379 376 367 350 361 371 372 400 275 254 273 233 230 224 222 175 172 214 205 176 193 204 196 195 171
361 368 405 398 391 365 368 374 359 365 350 354 355 350 331 313 360 354 348 321 314 311 318 316 335 350 358 417 243 278 263 228 229 221 200 185 196 170 184 164 168 180 190
404 402 398 403 393 356 351 358 353 386 350 329 330 321 328 341 347 334 310 304 298 296 290 297 304 313 318 346 356 320 270 249 221 229 223 219 208 142 206 152 193 191 174
402 397 428 405 370 353 353 350 345 343 370 371 338 317 336 348 320 304 295 293 290 288 293 295 291 295 297 321 324 339 332 332 271 253 235 227 224 206 220 199 197 197 207
395 378 372 363 358 350 341 339 347 352 350 393 395 359 338 325 308 294 291 286 296 288 283 290 287 289 284 310 182 333 330 320 320 334 268 228 185 219 220 208 215 208 197